COSMOS 2502

导读

COSMOS 2502(宇宙2502)又名“莲花-S-1”,是独联体(CIS)发射的军用卫星,于2014年12月25日成功发射入轨,国际卫星标识符为2014-086A,北美防空司令部编号40358。该卫星采用圆柱带两翼构型,直径约2.7米,翼展约6.3米,发射质量达7000千克,属于“宇宙”系列卫星,主要承担电子侦察等军事航天任务,延续了苏/俄军事卫星体系的部署序列。

基本信息
目录编号:
40358
目录名称:
COSMOS 2502
国际标识:
2014-086A
轨道中心:
EARTH
卫星名称:
COSMOS 2502
卫星全名:
--
卫星状态:
在轨 (已飞行4189 天)
发射日期:
2014-12-25 UTC
国别 :
俄罗斯(独联体) (CIS)
星等 :
--
轨道信息
数据来源 国际轨道数据
星历时间: 2026-06-14T23:19:30+0800
6小时前
查看轨道信息
半长轴: 7279.478km
偏心率: 0.0008233
轨道倾角: 67.154°
近地点辐角 259.227°
升交点赤经 13.461°
平近点角 100.789°
近地点: 895.347km
远地点: 907.335km
周期: 103.017分钟
每日圈数: 13.978239
详细信息
使用方式:
暂无
2D轨道图
3D轨道图
轨道高度分析图
轨道倾角分析图
轨道综合分析图
查看轨道综合分析图